Location: Moscow
(55.7500°N, 37.5830°E)
Time: 20:06:49
(UTC+03:00)

SR - Visible Passes

Search period start: 06 December 2021 00:00
Search period end: 16 December 2021 00:00
Orbit: 583 x 871 km, 66.7° (Epoch: 05 December)

Date Brightness Start Highest point End Pass type
(mag) Time Alt. Az. Time Alt. Az. Time Alt. Az.
06 Dec ? 04:36:23 17° NE 04:36:23 17° NE 04:37:57 10° ENE visible
06 Dec ? 06:15:47 26° NNW 06:17:43 41° NE 06:21:53 10° ESE visible
06 Dec ? 07:55:41 10° NW 07:59:48 46° SW 08:04:04 10° SSE visible
07 Dec ? 05:27:19 29° NNE 05:27:35 29° NNE 05:31:25 10° E visible
07 Dec ? 07:06:42 17° NW 07:10:01 81° SW 07:14:28 10° SE visible
08 Dec ? 04:38:52 19° NE 04:38:52 19° NE 04:40:50 10° ENE visible
08 Dec ? 06:18:15 32° NNW 06:20:07 61° NE 06:24:29 10° ESE visible
09 Dec ? 05:29:51 39° NNE 05:30:04 40° NNE 05:34:13 10° ESE visible
09 Dec ? 07:09:15 18° WNW 07:12:11 49° SW 07:16:30 10° SSE visible
10 Dec ? 04:41:28 23° ENE 04:41:28 23° ENE 04:43:44 10° E visible
10 Dec ? 06:20:52 40° NW 06:22:23 86° SW 06:26:52 10° SE visible
10 Dec ? 08:01:01 10° WNW 08:03:49 17° WSW 08:06:42 10° SSW visible
11 Dec ? 03:53:08 10° ENE 03:53:08 10° ENE 03:53:09 10° ENE visible
11 Dec ? 05:32:32 58° NE 05:32:32 58° NE 05:36:51 10° ESE visible
11 Dec ? 07:11:57 18° WNW 07:14:16 30° WSW 07:18:10 10° S visible
12 Dec ? 04:44:14 26° E 04:44:14 26° E 04:46:33 10° ESE visible
12 Dec ? 06:23:38 43° W 06:24:34 53° SW 06:28:57 10° SSE visible
13 Dec ? 03:55:59 10° E 03:55:59 10° E 03:56:02 10° E visible
13 Dec ? 05:35:24 64° SE 05:35:24 64° SE 05:39:15 10° SE visible
13 Dec ? 07:14:48 16° W 07:16:13 18° WSW 07:19:18 10° SSW visible
14 Dec ? 04:47:12 25° ESE 04:47:12 25° ESE 04:49:12 10° ESE visible
14 Dec ? 06:26:37 32° WSW 06:26:39 32° WSW 06:30:40 10° S visible
15 Dec ? 05:38:30 36° S 05:38:30 36° S 05:41:22 10° SSE visible
15 Dec ? 07:17:55 10° WSW 07:18:05 10° WSW 07:18:54 10° WSW visible
